Regional Weather Roundup
Issued by NWS Midland/Odessa, TX

Skip options and go directly to product.
Home | Oldest Version | Next Version | Current Version | All | Text Only | Save Text | Print | Product List | Glossary On

Skip product version selection by date and time.   
533
ASUS44 KMAF 191802
RWRMAF
MIDLAND AREA WEATHER ROUNDUP
NATIONAL WEATHER SERVICE MIDLAND TX
100 PM CDT SAT APR 19 2014

...IN SOUTHWEST TEXAS AND SOUTHEAST NEW MEXICO...

CITY           SKY/WX    TMP DP  RH WIND       PRES   REMARKS
ALPINE         PTSUNNY   73  45  36 S9        30.16S
ANDREWS        PTSUNNY   73  54  50 S15G21    30.08S
ARTESIA        LGT RAIN  55  55 100 SW5       30.13R
BIG SPRING     PTSUNNY   74  53  47 SE21G28   30.12F
CARLSBAD       LGT RAIN  59  55  87 W6        30.14R FOG
DRYDEN           N/A     79  54  41 SE16G29   30.06F
FORT STOCKTON  MOSUNNY   71  54  54 SE17G26   30.07F
GUAD PASS      NOT AVBL
HOBBS          CLOUDY    64  54  68 SW7       30.14R
MARFA          CLOUDY    70  48  46 S10       30.16F
MIDLAND AIRPK  MOSUNNY   73  54  51 S21G28    30.08F
MIDLAND INTL   MOSUNNY   73  54  51 S25G32    30.08S
ODESSA         MOSUNNY   73  53  49 S21G26    30.08S
PECOS          PTSUNNY   74  51  44 SW15      30.08R
PRESIDIO       FAIR      79  49  35 SW6       30.01F
SEMINOLE       PTSUNNY   68  53  58 S6        30.12R
SNYDER         CLOUDY    72  55  55 SE18      30.12S
WINK           CLOUDY    72  55  55 SE16      30.04F
$$
...OTHER STATIONS IN TEXAS...

CITY           SKY/WX    TMP DP  RH WIND       PRES   REMARKS
ABILENE        CLOUDY    73  52  47 SE16G22   30.13F
AMARILLO       MOSUNNY   72  48  42 S23G31    30.08S
AUSTIN         PTSUNNY   75  55  49 VRB7      30.16F
BROWNSVILLE    PTSUNNY   79  65  62 SE14      30.11F
CORPUS CHRISTI PTSUNNY   78  58  49 SE12G21   30.14F
DALLAS FTW     PTSUNNY   75  52  44 S12G18    30.16F
DEL RIO        CLOUDY    73  50  44 SE16G25   30.09F
EL PASO        MOSUNNY   71  46  40 N12       30.05F
HOUSTON INT    MOSUNNY   77  56  48 E7        30.17F
LUBBOCK        CLOUDY    69  52  54 S17       30.11F
SAN ANGELO     CLOUDY    71  52  50 SE13      30.11F
SAN ANTONIO    CLOUDY    77  53  43 SE12      30.15F
WACO           MOSUNNY   76  55  48 S9        30.17F
WICHITA FALLS  NOT AVBL
$$
...OTHER LOCATIONS IN NEW MEXICO...

CITY           SKY/WX    TMP DP  RH WIND       PRES   REMARKS
ALAMAGORDO     CLOUDY    63  54  72 NW12      30.12F
ALBUQUERQUE    PTSUNNY   57  42  57 SW6       30.14F
CANNON AFB     CLOUDY    64  49  57 S21G26    30.13R
CLOVIS         CLOUDY    64  46  52 S24G30    30.15S
HOLLOMAN AFB   CLOUDY    62  53  70 NW12      30.11F
ROSWELL        CLOUDY    57  54  89 E6        30.10F
RUIDOSO        LGT RAIN  48  45  87 CALM      30.22F
SANTA FE       CLOUDY    63  34  33 SW13G21   30.13F
TRUTH OR CONSE CLOUDY    57  47  69 N10       30.13F
TUCUMCARI      MOSUNNY   76  43  30 S18G25    30.03F
$$

USA.gov is the U.S. government's official web portal to all federal, state and local government web resources and services.